Grenoble, France

2:15 PM CEST on September 28, 2016 (GMT +0200)
Saint Geoirs

Weather History for LFLS - December, 2012

Change the Weather History Date:

Monday, December 10, 2012

  Actual Average Record
Temperature  
Mean Temperature 30 °F -  
Max Temperature 35 °F 42 °F 53 °F (2011)
Min Temperature 26 °F 32 °F 23 °F (2013)
Degree Days  
Heating Degree Days 34    
Moisture  
Dew Point 28 °F    
Average Humidity 87    
Maximum Humidity 100    
Minimum Humidity 75    
Precipitation  
Precipitation 0.00 in - - ()
Sea Level Pressure  
Sea Level Pressure 30.07 in    
Wind  
Wind Speed 7 mph ()    
Max Wind Speed 13 mph    
Max Gust Speed -    
Visibility 4.9 miles    
Events Rain , Snow    
Averages and records for this station are not official NWS values.
T = Trace of Precipitation, MM = Missing Value Source: Averaged Metar Reports

Daily Weather History Graph

Daily Weather History Graph

Search for Another Location

Airport or City:

Trip Planner

Search our weather history database for the weather conditions in past years. The results will help you decide how hot, cold, wet, or windy it might be!

Date:

Astronomy

Dec. 10, 2012 Rise Set
Actual Time 8:07 AM CET 4:55 PM CET
Civil Twilight 7:33 AM CET 5:29 PM CET
Nautical Twilight 6:56 AM CET 6:06 PM CET
Astronomical Twilight 6:20 AM CET 6:42 PM CET
Moon 4:25 AM CET (12/10) 2:38 PM CET (12/10)
Length of Visible Light 9h 56m
Length of Day
8h 48m
Waning Crescent, 12% of the Moon is Illuminated
Dec 10
Waning Crescent
Dec 13
New
Dec 20
First Quarter
Dec 28
Full
Jan 5
Last Quarter

Hourly Weather History & Observations

Time (CET) Temp. Windchill Dew Point Humidity Pressure Visibility Wind Dir Wind Speed Gust Speed Precip Events Conditions
12:00 AM 26.6 °F 16.8 °F 21.2 °F 80% 30.15 in 6.2 mi East 10.4 mph - N/A   Unknown
12:30 AM 26.6 °F 17.5 °F 21.2 °F 80% 30.15 in 6.2 mi East 9.2 mph - N/A   Unknown
1:00 AM 26.6 °F 17.5 °F 23.0 °F 86% 30.15 in 6.2 mi East 9.2 mph - N/A   Mostly Cloudy
1:30 AM 28.4 °F 20.4 °F 23.0 °F 80% 30.15 in 6.2 mi East 8.1 mph - N/A   Overcast
2:00 AM 28.4 °F 20.4 °F 23.0 °F 80% 30.12 in 6.2 mi East 8.1 mph - N/A   Overcast
2:30 AM 28.4 °F 20.4 °F 23.0 °F 80% 30.12 in 6.2 mi East 8.1 mph - N/A   Overcast
3:00 AM 28.4 °F 20.4 °F 23.0 °F 80% 30.12 in 6.2 mi East 8.1 mph - N/A   Overcast
3:30 AM 28.4 °F 22.2 °F 24.8 °F 86% 30.12 in 6.2 mi East 5.8 mph - N/A   Mostly Cloudy
4:00 AM 28.4 °F 19.1 °F 24.8 °F 86% 30.09 in 6.2 mi East 10.4 mph - N/A   Overcast
4:30 AM 28.4 °F 20.4 °F 24.8 °F 86% 30.09 in 6.2 mi East 8.1 mph - N/A   Overcast
5:00 AM 28.4 °F 19.7 °F 23.0 °F 80% 30.06 in - East 9.2 mph - N/A Snow Light Snow
5:30 AM 28.4 °F 18.5 °F 24.8 °F 86% 30.06 in 5.0 mi East 11.5 mph - N/A   Overcast
6:00 AM 28.4 °F 19.1 °F 26.6 °F 93% 30.06 in 4.3 mi East 10.4 mph - N/A   Overcast
6:30 AM 28.4 °F 19.1 °F 26.6 °F 93% 30.06 in 3.7 mi East 10.4 mph - N/A   Mostly Cloudy
7:00 AM 28.4 °F 18.5 °F 26.6 °F 93% 30.04 in 2.5 mi East 11.5 mph - N/A Snow Light Snow
7:30 AM 28.4 °F 18.5 °F 26.6 °F 93% 30.04 in 3.7 mi East 11.5 mph - N/A   Mostly Cloudy
8:00 AM 28.4 °F 18.0 °F 26.6 °F 93% 30.04 in 5.0 mi East 12.7 mph - N/A   Mostly Cloudy
8:13 AM 28.4 °F 18.5 °F 26.6 °F 93% 30.04 in 5.0 mi East 11.5 mph - N/A   Mostly Cloudy
8:30 AM 28.4 °F 19.1 °F 28.4 °F 100% 30.04 in 3.7 mi East 10.4 mph - N/A   Overcast
9:00 AM 30.2 °F 21.9 °F 28.4 °F 93% 30.04 in 3.7 mi East 9.2 mph - N/A Snow Light Snow
9:30 AM 30.2 °F 22.6 °F 28.4 °F 93% 30.04 in 2.5 mi East 8.1 mph - N/A Snow Light Snow
10:00 AM 32.0 °F 26.4 °F 30.2 °F 93% 30.04 in 3.1 mi East 5.8 mph - N/A   Overcast
10:30 AM 32.0 °F 25.6 °F 30.2 °F 93% 30.04 in 3.7 mi East 6.9 mph - N/A Snow Light Snow Grains
11:00 AM 32.0 °F 26.4 °F 32.0 °F 100% 30.04 in 2.5 mi East 5.8 mph - N/A Rain Rain
11:30 AM 32.0 °F 26.4 °F 32.0 °F 100% 30.04 in 1.9 mi East 5.8 mph - N/A Rain Rain
12:00 PM 33.8 °F 30.8 °F 32.0 °F 93% 30.04 in 1.6 mi ESE 3.5 mph - N/A Snow Light Snow
12:30 PM 33.8 °F - 32.0 °F 93% 30.04 in 1.2 mi South 2.3 mph - N/A Rain Rain
1:00 PM 33.8 °F - 32.0 °F 93% 30.04 in 1.9 mi Calm Calm - N/A   Overcast
1:30 PM 33.8 °F 30.8 °F 32.0 °F 93% 30.01 in 3.7 mi Variable 3.5 mph - N/A   Mostly Cloudy
2:00 PM 35.6 °F 32.8 °F 33.8 °F 93% 30.01 in 5.0 mi South 3.5 mph - N/A   Mostly Cloudy
2:30 PM 35.6 °F 29.9 °F 32.0 °F 87% 30.04 in 4.3 mi Variable 6.9 mph - N/A Rain , Snow Light Rain
3:00 PM 35.6 °F 28.6 °F 30.2 °F 81% 30.04 in 4.3 mi North 9.2 mph - N/A   Mostly Cloudy
3:30 PM 35.6 °F 30.7 °F 30.2 °F 81% 30.04 in 6.2 mi NNE 5.8 mph - N/A   Scattered Clouds
4:00 PM 35.6 °F 29.9 °F 32.0 °F 87% 30.04 in 6.2 mi ENE 6.9 mph - N/A   Mostly Cloudy
4:30 PM 35.6 °F 32.8 °F 30.2 °F 81% 30.04 in 6.2 mi ENE 3.5 mph - N/A   Mostly Cloudy
5:00 PM 35.6 °F 31.7 °F 30.2 °F 81% 30.04 in 6.2 mi NNE 4.6 mph - N/A   Mostly Cloudy
5:30 PM 35.6 °F 30.7 °F 30.2 °F 81% 30.04 in 6.2 mi North 5.8 mph - N/A   Mostly Cloudy
6:00 PM 35.6 °F 30.7 °F 30.2 °F 81% 30.04 in 6.2 mi North 5.8 mph - N/A   Mostly Cloudy
6:30 PM 35.6 °F 28.6 °F 32.0 °F 87% 30.06 in 6.2 mi NNW 9.2 mph - N/A   Overcast
7:00 PM 35.6 °F 29.2 °F 32.0 °F 87% 30.06 in 6.2 mi North 8.1 mph - N/A   Overcast
7:30 PM 35.6 °F 29.9 °F 32.0 °F 87% 30.06 in 1.7 mi NW 6.9 mph - N/A Rain Rain
8:00 PM 35.6 °F 29.9 °F 32.0 °F 87% 30.09 in 6.2 mi North 6.9 mph - N/A   Mostly Cloudy
8:30 PM 35.6 °F 29.2 °F 30.2 °F 81% 30.09 in 6.2 mi North 8.1 mph - N/A   Mostly Cloudy
9:00 PM 35.6 °F 31.7 °F 30.2 °F 81% 30.09 in 6.2 mi NNE 4.6 mph - N/A   Overcast
9:30 PM 35.6 °F 29.2 °F 28.4 °F 75% 30.09 in 6.2 mi North 8.1 mph - N/A   Mostly Cloudy
10:00 PM 35.6 °F 29.2 °F 30.2 °F 81% 30.09 in 6.2 mi North 8.1 mph - N/A   Overcast
10:30 PM 35.6 °F 30.7 °F 30.2 °F 81% 30.12 in 6.2 mi North 5.8 mph - N/A   Overcast
11:00 PM 33.8 °F - 30.2 °F 87% 30.12 in 6.2 mi Variable 2.3 mph - N/A   Overcast
11:30 PM 33.8 °F 30.8 °F 32.0 °F 93% 30.12 in 6.2 mi NW 3.5 mph - N/A   Mostly Cloudy